カタログに戻る

COSMOS 2499 DEB

運用中PO
NORAD 49938·DEBRIS·🇷🇺 Russia

打ち上げ May 23, 2014 から Plesetsk Cosmodrome

Loading…

次のパス (今後24時間)

TLE

最新Source: Space-Track

元期: Sep 12, 2026, 02:11 UTC

1 49938U 14028V   26255.09119009  .00002690  00000-0  65651-2 0  9999
2 49938  82.5630 175.5933 0306622   5.2572 355.1640 13.05493588230546

AllMySatでCOSMOS 2499 DEBをリアルタイム追跡

Download on the App Store